Temperature
20 20 20 20 18 17 18 19 19 19 18 19 19 18 18 17 17 17 17 17 17 17 17 17 17 17 17 17 17 17 17 17 17 17 17 17 17 17 17 17 17 17 17 17 17 17 17 18 18
20 20 20 20 17 17 18 19 19 19 19 19 18 18 17 17 17 17 17 17 17 17 17 17 17 17 17 17 17 17 17 17 17 17 17 17 17 17 17 17 17 17 17 17 17 17 17 17 17
20 20 20 16 17 17 19 19 18 19 19 19 18 17 17 17 17 17 17 17 17 17 17 17 17 17 17 17 17 17 17 17 17 17 17 17 17 17 17 17 17 17 17 17 17 17 17 17 17
20 20 19 17 18 18 18 18 18 19 19 18 18 17 17 17 17 17 17 17 17 17 17 17 17 17 17 17 17 17 17 17 17 17 17 17 17 17 17 16 17 17 17 17 17 17 17 17 17
21 20 17 17 18 18 18 18 19 18 18 18 17 17 17 17 17 17 17 17 17 17 17 17 17 17 17 17 17 17 17 17 17 17 17 17 16 16 16 16 16 17 17 17 17 17 17 17 17
20 17 16 17 18 18 18 19 19 18 18 18 17 17 16 17 17 17 17 17 17 17 17 17 17 17 17 17 16 16 16 16 16 16 16 16 16 16 16 16 16 16 16 16 16 16 16 16 16
19 16 17 17 18 18 19 19 18 18 18 18 18 16 16 17 17 17 17 17 17 17 17 17 17 17 17 16 16 16 16 16 16 16 16 16 16 16 16 16 16 16 16 16 16 16 16 16 16
20 16 17 17 18 18 19 19 19 18 18 18 18 17 17 17 17 17 17 17 17 17 17 17 16 16 16 16 16 16 16 16 16 16 16 16 16 16 16 16 16 16 16 16 16 16 16 16 16
20 16 16 17 18 18 19 18 18 18 18 18 18 18 18 17 17 17 17 17 16 16 16 16 16 16 16 16 16 16 16 16 16 16 16 16 16 16 16 16 16 16 16 16 16 16 16 16 16
19 16 18 18 18 18 18 18 18 18 17 17 17 18 17 17 17 17 17 17 17 16 16 16 16 16 16 16 16 16 16 16 16 16 16 16 16 16 16 15 16 16 16 16 16 16 16 16 16
18 17 18 18 19 19 18 18 18 18 17 17 17 17 17 17 17 17 17 17 17 16 16 16 16 16 16 16 16 16 16 16 16 15 15 15 15 15 15 15 16 16 16 16 16 16 16 16 16
18 18 19 19 19 19 19 18 18 18 18 19 18 18 17 17 17 17 17 17 17 17 16 16 16 16 16 16 16 16 16 15 16 15 15 15 15 15 15 15 15 15 15 16 16 15 15 15 15
18 18 19 19 19 19 19 18 18 18 18 18 18 18 17 17 17 17 17 17 17 17 16 16 16 16 16 16 16 15 15 15 15 15 15 15 15 15 15 15 15 15 15 15 15 15 15 15 15
19 18 19 19 19 19 18 17 17 17 18 18 18 17 17 17 17 17 17 17 17 17 17 16 16 16 16 16 16 15 15 15 15 15 15 15 15 15 15 15 15 15 15 15 15 15 15 15 15
19 18 18 18 18 18 18 17 17 17 17 17 17 17 17 17 17 17 17 17 17 17 17 16 16 16 16 16 15 15 15 15 15 15 15 15 15 15 15 15 15 15 15 15 15 15 15 15 15
18 17 17 18 18 18 18 17 17 17 17 16 17 17 17 17 17 17 17 17 17 17 16 16 16 16 15 15 15 15 15 15 15 15 15 15 15 15 15 15 14 14 14 14 15 15 15 15 14
17 17 17 18 18 17 17 17 17 17 17 16 16 16 17 17 17 17 17 17 17 16 16 16 16 16 15 15 15 15 15 15 15 15 14 14 14 14 14 14 14 14 14 14 14 14 14 14 14
17 17 17 17 17 17 16 16 16 16 16 16 16 16 16 16 17 17 16 16 17 16 16 16 16 15 15 15 15 15 15 15 15 14 14 14 14 14 14 14 14 14 14 14 14 14 14 14 14
18 17 17 17 17 17 16 16 16 16 15 15 15 16 16 16 17 16 16 16 16 16 16 16 16 15 15 15 15 15 15 15 15 14 14 14 14 14 14 14 14 14 14 14 14 14 14 14 14
18 17 17 17 17 17 16 16 15 15 15 15 15 16 16 16 16 16 16 16 16 16 16 16 16 15 15 15 15 15 15 14 14 14 14 14 14 14 14 14 14 14 14 14 14 14 14 13 13
18 17 17 17 17 16 16 16 15 15 15 15 15 16 16 16 16 16 16 16 16 16 15 15 15 15 15 15 15 15 14 14 14 14 14 14 13 13 13 13 13 13 13 13 13 13 13 13 13
18 18 18 17 16 15 16 15 15 14 14 14 14 15 16 16 16 16 16 16 16 15 15 15 15 15 15 15 14 14 14 14 14 14 14 13 13 13 13 13 13 13 13 13 13 13 13 12 12
18 18 17 17 16 15 15 15 14 14 14 14 14 15 15 16 16 16 16 16 16 15 15 15 15 15 15 14 14 14 14 14 14 13 13 13 13 13 13 13 13 13 13 12 12 12 12 12 12
17 16 15 14 14 15 15 14 14 13 14 14 14 15 15 15 15 16 16 16 15 15 15 15 15 15 14 14 14 14 14 14 13 13 13 13 13 13 12 12 12 12 12 12 12 12 12 12 11
17 15 15 15 14 14 14 14 14 14 14 14 14 14 15 15 15 15 15 15 15 15 15 14 14 14 14 14 14 13 13 13 13 13 13 13 12 12 12 12 12 12 12 12 11 11 11 11 11
16 16 15 15 14 14 14 14 14 15 15 15 15 15 15 15 15 15 15 15 15 15 15 14 14 14 14 14 13 13 13 13 13 13 12 12 12 12 12 11 11 11 11 11 11 11 11 11 11
16 15 15 14 14 14 14 14 14 14 14 14 14 14 14 15 15 15 15 15 15 14 14 14 14 14 14 13 13 13 13 13 12 12 12 12 12 11 11 11 11 11 11 11 11 11 10 10 10
16 14 13 14 14 14 14 14 14 14 14 13 13 13 14 14 15 14 14 14 14 14 14 14 14 14 13 13 13 13 12 12 12 12 12 12 11 11 11 11 11 11 10 10 10 10 10 10 10
16 15 13 12 13 13 14 14 14 14 14 13 13 13 14 14 14 14 14 14 14 14 14 13 13 13 13 13 12 12 12 12 12 11 11 11 11 11 11 11 10 10 10 10 10 10 10 10 10
16 15 13 14 13 12 12 13 14 13 13 13 13 14 14 14 14 14 14 14 14 13 13 13 13 13 13 12 12 12 11 11 11 11 11 11 11 10 10 10 10 10 10 9 9 9 9 9 9
Wind_Speed
3 4 3 4 5 5 2 1 0 2 3 3 5 6 7 5 3 3 1 1 2 1 0 2 4 4 5 6 7 7 8 9 9 9 9 9 10 9 10 9 9 9 9 9 9 10 9 9 9
2 3 4 5 5 4 1 1 2 2 3 4 6 6 6 4 3 4 1 1 2 2 2 2 4 5 6 7 7 8 9 9 10 10 10 10 10 10 10 10 9 9 10 9 10 10 10 10 10
3 4 4 5 4 4 2 1 2 4 5 3 4 5 4 3 2 2 1 2 2 3 2 2 4 5 6 7 7 8 9 9 10 10 11 11 11 10 10 10 10 10 10 10 9 10 10 10 11
4 5 5 6 5 1 2 1 3 4 4 5 4 5 3 2 2 2 3 4 4 3 3 3 4 5 6 6 7 7 8 9 10 10 11 11 11 11 11 11 10 10 10 10 10 10 10 10 11
4 5 6 4 2 1 1 0 2 4 3 3 4 4 2 3 4 5 5 4 4 3 3 3 4 4 5 6 7 8 9 9 10 10 10 10 11 11 11 11 11 11 11 10 10 10 10 11 11
5 5 5 3 1 2 2 2 3 5 4 3 4 4 2 1 4 4 4 4 4 3 3 3 4 4 5 6 7 7 9 9 9 10 10 10 11 11 11 11 11 11 11 11 10 10 10 11 11
5 5 4 3 2 2 1 2 3 4 3 2 3 4 2 1 2 4 4 4 4 4 4 4 5 6 7 7 8 9 9 10 10 10 9 10 10 10 10 10 10 10 10 10 10 10 10 10 10
5 5 4 2 3 1 0 2 2 3 2 2 3 5 4 4 4 5 5 5 4 4 4 4 5 6 7 7 8 9 9 9 9 9 9 9 10 10 10 9 9 10 10 10 10 9 10 10 10
4 5 2 3 4 2 1 2 2 3 4 3 2 2 3 7 7 6 5 4 3 3 3 4 4 5 5 5 7 8 8 9 9 9 9 9 9 9 8 9 9 10 10 10 10 10 10 10 10
5 4 3 3 4 4 2 2 2 3 4 3 3 4 6 8 8 7 5 4 2 1 2 3 3 3 4 5 6 7 7 7 8 8 8 8 8 8 8 8 9 10 10 10 11 11 10 9 8
4 4 2 1 3 3 2 2 2 5 2 3 5 7 8 7 6 6 5 4 3 2 2 2 3 3 4 4 5 5 5 6 7 7 7 7 7 7 7 7 7 8 9 8 9 9 8 7 6
4 1 2 1 2 3 3 2 3 2 2 3 6 9 9 8 7 6 6 5 4 3 2 2 3 3 3 4 3 4 4 4 4 5 6 6 4 5 5 4 5 6 5 6 6 6 7 7 7
3 1 1 2 3 3 4 3 3 0 1 6 7 7 7 7 5 4 4 4 4 4 3 3 3 3 3 3 3 4 3 3 4 4 4 5 3 2 3 3 5 5 5 5 4 4 5 5 6
2 3 2 2 3 2 5 2 3 0 3 6 6 5 5 5 5 3 3 4 4 4 4 3 3 3 3 3 3 3 3 3 4 4 4 4 4 3 2 3 3 4 4 4 4 4 4 4 4
4 4 4 2 1 2 4 3 1 2 5 5 4 4 4 4 4 5 5 5 5 4 4 4 4 3 4 3 3 3 3 4 4 4 4 4 4 4 3 3 3 3 5 5 5 5 5 4 4
4 4 2 3 1 1 4 1 2 3 6 4 3 2 3 3 3 4 4 4 4 4 4 4 4 4 3 3 3 3 4 4 4 4 5 5 5 5 4 3 3 4 5 4 3 3 4 4 4
4 1 1 2 0 2 3 3 3 3 6 5 4 3 3 2 2 2 3 4 5 5 5 4 4 4 4 3 3 4 4 4 4 5 5 5 6 6 5 4 3 4 4 3 3 3 3 3 3
2 2 2 2 2 2 1 3 3 3 5 5 4 3 3 3 3 2 2 3 4 4 4 5 4 4 4 3 3 3 3 3 4 4 4 5 6 6 6 5 4 4 3 3 3 3 3 3 2
4 3 2 3 2 2 2 3 3 2 3 3 3 3 4 4 2 1 2 3 4 4 4 5 5 4 4 2 2 2 1 1 2 3 5 5 6 6 6 4 4 4 3 3 3 3 4 4 2
3 2 1 2 0 2 1 3 3 2 4 5 6 5 5 3 1 2 3 3 3 3 3 3 4 4 3 2 2 2 2 1 1 2 4 5 5 5 5 5 3 3 3 4 4 3 2 2 3
2 4 3 2 2 3 2 4 3 2 1 1 2 3 4 5 5 3 3 3 3 3 4 4 4 4 3 3 3 3 3 3 2 2 2 4 5 5 5 4 4 3 3 3 2 2 3 2 2
3 3 4 3 2 1 1 2 5 3 2 2 2 3 4 4 4 4 4 4 4 4 3 4 4 3 3 4 4 4 3 2 1 1 1 2 5 5 5 4 4 3 3 3 2 2 2 3 1
3 1 2 2 3 1 1 1 6 2 4 6 5 4 5 5 5 5 6 6 5 4 3 4 4 4 3 4 5 5 3 2 2 2 2 2 3 4 4 4 4 3 3 2 3 3 3 2 2
4 5 5 5 4 0 3 3 6 4 5 5 5 5 5 4 4 4 4 4 3 3 3 3 4 3 3 4 4 5 5 4 4 3 2 2 2 2 3 4 4 3 3 2 2 2 3 2 2
4 5 3 4 3 4 2 3 6 6 5 6 5 5 5 4 4 4 5 5 5 4 4 3 4 3 3 4 4 4 4 5 4 3 2 2 1 1 1 2 2 2 2 2 3 3 2 2 2
3 7 6 4 4 4 1 4 6 5 4 3 3 3 3 3 3 4 5 6 6 6 5 4 4 4 3 4 3 3 3 3 3 3 3 2 2 1 1 2 2 2 2 2 2 2 1 2 2
4 3 5 5 2 1 4 5 6 2 2 1 1 2 3 3 3 3 4 5 5 6 5 5 5 4 4 4 4 3 3 3 3 3 3 2 2 1 2 2 2 2 2 2 2 2 1 1 1
4 7 5 4 3 3 5 4 4 5 4 2 1 2 3 3 3 2 3 3 4 4 4 4 4 4 4 4 4 3 3 3 3 3 3 2 2 2 2 2 2 1 2 2 2 1 1 1 0
3 4 4 3 3 4 3 6 4 6 5 5 4 3 3 3 3 3 2 2 3 3 3 3 3 3 3 3 3 3 3 3 3 3 3 3 2 2 2 2 1 1 1 1 2 1 1 1 1
3 5 7 4 3 4 3 6 4 3 3 3 4 3 2 2 2 2 2 2 2 3 3 3 3 3 3 4 4 3 3 3 3 2 2 2 2 2 2 2 2 1 1 1 2 1 0 1 0
Wind_Direction
38 77 80 62 59 56 58 355 58 63 61 53 66 82 93 84 97 134 244 165 132 102 72 117 101 89 83 78 76 80 81 83 83 84 84 84 84 86 87 86 85 80 78 77 72 70 71 72 76
85 80 55 61 82 81 13 338 76 77 126 118 71 69 73 65 63 104 117 121 104 94 87 100 100 95 89 80 78 81 85 85 86 86 83 82 83 83 84 84 83 80 77 77 75 72 70 72 74
91 60 74 66 86 134 143 74 102 73 78 76 73 60 73 86 96 134 169 123 89 78 78 94 98 99 96 90 85 84 88 87 87 84 82 80 82 81 81 82 80 76 74 75 76 74 72 72 73
79 48 55 69 79 120 166 158 130 104 65 50 89 71 58 40 137 142 121 110 100 79 70 80 94 98 101 102 97 91 90 90 87 84 83 81 81 80 77 77 77 75 75 76 74 74 76 77 78
61 73 64 60 50 4 360 127 104 97 74 58 83 92 50 3 80 104 111 109 105 78 60 72 81 94 101 108 104 98 94 91 87 84 81 79 78 76 73 72 72 73 75 75 73 72 74 76 80
58 67 83 90 35 1 23 49 83 84 92 92 96 101 69 55 96 111 102 98 99 86 56 61 71 72 92 108 109 100 91 89 87 82 77 75 73 71 68 69 70 72 73 72 71 71 71 73 78
97 88 112 127 99 31 48 59 91 104 108 125 126 109 115 156 137 118 93 78 70 71 59 44 53 60 78 93 94 88 84 83 83 79 75 71 71 70 67 66 66 68 70 71 70 69 68 70 72
112 98 92 114 130 135 91 74 75 92 111 99 106 134 171 189 145 106 83 71 65 61 55 52 51 56 60 70 77 76 76 77 75 72 68 65 63 61 61 60 63 65 65 66 67 68 65 65 67
84 80 124 180 162 160 122 89 57 58 91 74 76 138 150 138 128 109 88 70 67 61 48 53 54 54 60 66 72 70 69 68 65 61 58 52 48 49 51 53 60 61 61 61 62 64 65 63 62
78 114 189 192 166 150 124 109 126 88 68 71 65 75 112 128 133 134 138 141 131 102 60 57 63 59 59 69 68 64 64 61 58 56 54 48 45 45 49 51 53 56 58 58 59 61 60 60 58
108 149 165 128 144 131 117 92 98 120 127 187 162 145 136 139 146 156 163 162 165 156 117 89 80 72 72 68 71 65 64 61 57 55 56 56 50 43 46 46 44 49 53 51 51 54 56 60 61
107 127 142 145 116 109 121 110 90 131 212 179 154 145 144 151 165 172 172 172 157 142 144 119 103 92 83 79 75 74 68 64 58 56 61 63 50 41 43 49 43 46 50 51 55 57 55 57 59
95 95 67 105 84 98 98 97 124 338 80 111 117 128 151 163 171 175 174 168 155 156 152 142 130 116 98 89 83 81 69 66 63 62 62 72 65 50 41 42 48 46 50 57 61 60 59 56 53
115 88 61 60 80 87 104 78 91 280 116 114 125 146 167 174 180 172 168 164 165 168 164 154 140 122 107 101 92 88 80 76 66 57 58 73 76 67 54 45 47 45 52 61 68 68 73 67 63
90 72 34 24 70 122 104 37 311 193 133 130 146 165 177 188 184 185 190 179 175 172 162 155 151 126 117 111 101 91 83 82 68 58 63 73 78 80 72 63 49 44 58 68 69 62 66 67 62
65 62 28 310 67 105 112 240 264 163 143 162 178 183 193 204 200 197 189 178 170 160 155 163 155 141 131 122 111 97 87 81 68 66 68 70 73 83 79 66 51 55 65 68 75 63 64 59 57
44 86 238 299 291 105 130 232 256 176 166 184 202 209 205 218 226 205 188 177 171 163 158 153 142 138 136 127 107 93 83 76 70 70 68 68 74 79 81 68 55 64 69 65 73 64 72 66 55
215 208 232 246 241 113 168 253 271 201 186 202 212 219 211 210 227 200 159 151 149 144 144 141 133 127 120 102 84 75 67 59 61 66 68 73 74 76 79 71 58 69 75 61 60 70 64 67 59
171 175 227 256 233 139 213 256 270 226 197 212 222 223 219 219 228 130 119 120 117 116 129 142 140 137 130 119 116 105 94 54 49 54 62 71 75 76 75 68 56 66 77 77 75 80 71 52 46
153 160 224 306 48 152 224 277 284 218 214 211 209 213 214 209 179 138 122 120 130 143 142 145 151 151 145 141 143 145 139 107 96 60 56 62 73 78 82 79 68 64 80 70 63 72 75 50 44
185 183 204 203 31 40 69 323 308 310 258 220 212 208 201 194 193 184 160 158 146 155 166 166 166 154 145 135 113 92 74 64 53 43 41 40 63 73 77 80 77 67 81 86 72 73 90 76 30
241 235 187 155 116 304 89 286 288 275 291 276 251 211 204 201 190 182 174 171 177 182 171 160 152 142 140 137 131 130 129 129 147 139 87 56 56 62 70 76 77 72 76 80 70 73 82 102 79
210 92 116 129 141 66 30 192 284 299 263 262 251 228 215 204 192 188 183 181 178 166 150 151 138 133 131 132 136 134 120 124 103 94 88 70 52 54 61 72 75 71 67 72 70 69 75 92 113
128 74 61 53 78 292 245 186 277 252 241 252 239 232 226 210 193 190 180 161 157 144 137 139 140 138 139 136 131 136 133 124 113 103 103 78 57 45 54 69 69 70 72 73 74 76 80 77 87
92 93 38 3 9 256 239 193 250 259 250 228 223 220 213 199 186 182 174 166 161 156 155 149 150 147 148 145 143 149 149 145 146 146 144 123 89 54 38 73 73 69 72 80 77 76 70 79 88
159 143 158 199 226 275 297 231 251 268 274 243 208 191 179 182 183 186 186 179 174 173 168 160 161 162 162 161 160 153 149 151 153 155 153 156 158 152 109 93 94 84 81 78 78 74 66 72 86
140 162 163 140 161 265 276 283 298 304 345 3 125 147 175 190 189 192 188 179 177 180 180 176 172 173 176 172 161 156 160 160 159 159 151 155 148 135 98 93 91 91 92 93 95 79 55 71 71
134 141 104 123 160 255 286 274 261 270 271 277 248 204 200 191 186 188 180 177 177 182 178 175 174 182 181 172 173 167 167 170 164 153 155 152 148 132 128 115 105 100 94 100 104 91 67 85 34
101 110 114 120 155 171 255 269 233 230 230 227 230 222 206 200 194 189 183 170 159 151 153 155 160 165 167 168 166 154 160 158 151 158 172 170 156 147 149 149 142 146 146 132 121 133 130 112 13
175 170 152 160 215 186 203 265 285 245 236 217 221 220 208 202 192 176 160 138 139 159 157 162 169 172 175 169 161 161 158 151 150 170 178 164 160 161 165 157 160 172 153 145 151 155 142 162 234
Height
1484 1484 1485 1487 1491 1503 1507 1503 1499 1499 1500 1501 1501 1502 1504 1507 1511 1517 1514 1512 1512 1512 1513 1513 1513 1513 1512 1512 1512 1512 1512 1512 1511 1511 1511 1511 1511 1511 1511 1511 1511 1511 1511 1510 1510 1509 1507 1504 1499
1485 1485 1487 1488 1499 1513 1510 1502 1501 1500 1501 1502 1502 1504 1505 1508 1510 1511 1511 1512 1513 1513 1513 1513 1513 1513 1513 1513 1513 1513 1513 1513 1513 1513 1513 1512 1512 1512 1512 1512 1512 1512 1512 1512 1511 1510 1509 1507 1503
1486 1486 1489 1493 1504 1512 1508 1502 1501 1501 1502 1502 1504 1506 1508 1510 1511 1511 1512 1513 1514 1514 1514 1514 1514 1514 1513 1514 1514 1514 1514 1514 1514 1514 1514 1514 1514 1514 1513 1513 1513 1514 1513 1513 1512 1512 1511 1510 1508
1487 1489 1491 1500 1506 1505 1503 1502 1501 1502 1503 1504 1505 1508 1510 1512 1512 1513 1513 1514 1514 1515 1515 1515 1515 1514 1513 1513 1514 1515 1515 1516 1516 1515 1515 1515 1515 1515 1515 1515 1515 1515 1515 1514 1514 1514 1513 1513 1512
1487 1489 1499 1507 1506 1504 1502 1501 1501 1502 1504 1506 1506 1509 1511 1513 1513 1513 1514 1514 1515 1515 1516 1515 1515 1513 1512 1513 1514 1516 1516 1517 1517 1517 1517 1517 1517 1517 1516 1516 1516 1516 1516 1516 1516 1516 1515 1515 1515
1489 1492 1508 1513 1508 1504 1502 1502 1503 1504 1505 1507 1508 1510 1513 1514 1514 1514 1515 1516 1516 1516 1516 1516 1515 1513 1510 1511 1514 1517 1517 1518 1518 1518 1518 1518 1518 1518 1518 1518 1518 1518 1518 1517 1517 1517 1517 1517 1517
1491 1498 1508 1509 1509 1506 1504 1503 1504 1505 1506 1508 1508 1511 1513 1514 1515 1516 1516 1517 1517 1517 1517 1517 1516 1514 1512 1513 1516 1518 1519 1519 1519 1520 1520 1520 1520 1520 1519 1519 1519 1519 1519 1519 1519 1519 1519 1519 1519
1491 1498 1507 1509 1509 1508 1504 1504 1505 1506 1507 1509 1509 1511 1513 1514 1515 1516 1517 1518 1518 1519 1519 1518 1518 1517 1517 1518 1519 1520 1521 1521 1521 1521 1521 1521 1521 1521 1521 1521 1521 1521 1521 1520 1520 1520 1520 1520 1520
1492 1503 1511 1508 1508 1506 1504 1505 1506 1507 1508 1509 1510 1511 1512 1514 1515 1517 1518 1519 1519 1520 1520 1520 1520 1520 1521 1521 1522 1522 1522 1522 1523 1523 1523 1523 1523 1523 1523 1523 1523 1522 1522 1522 1522 1522 1522 1522 1522
1494 1507 1506 1503 1503 1503 1504 1505 1507 1508 1509 1510 1510 1512 1513 1514 1516 1517 1518 1519 1519 1520 1521 1521 1522 1522 1522 1523 1523 1524 1524 1524 1524 1524 1525 1525 1525 1525 1525 1525 1525 1524 1524 1524 1523 1523 1523 1523 1523
1496 1502 1501 1501 1502 1503 1504 1506 1507 1508 1510 1509 1510 1511 1513 1515 1517 1518 1519 1519 1520 1521 1522 1522 1523 1524 1524 1524 1525 1525 1525 1526 1526 1526 1526 1526 1526 1526 1526 1526 1526 1526 1525 1525 1525 1525 1525 1525 1525
1498 1500 1500 1502 1502 1503 1505 1506 1508 1508 1509 1509 1510 1511 1513 1515 1516 1518 1519 1520 1521 1522 1523 1524 1524 1525 1525 1526 1526 1527 1527 1527 1527 1527 1527 1527 1527 1527 1527 1527 1527 1527 1527 1527 1526 1526 1526 1526 1526
1499 1501 1502 1502 1503 1504 1505 1507 1508 1509 1509 1510 1511 1513 1514 1516 1517 1518 1520 1521 1522 1523 1524 1525 1525 1526 1526 1527 1527 1528 1528 1528 1529 1529 1529 1529 1529 1528 1528 1528 1528 1528 1528 1528 1527 1527 1527 1527 1527
1500 1501 1502 1503 1503 1505 1506 1508 1509 1510 1510 1511 1512 1514 1515 1516 1518 1519 1520 1521 1522 1523 1524 1525 1526 1527 1527 1528 1528 1529 1529 1529 1529 1530 1530 1530 1530 1529 1529 1529 1529 1528 1528 1528 1528 1528 1528 1528 1528
1501 1503 1505 1504 1504 1506 1507 1511 1510 1510 1510 1511 1512 1514 1515 1517 1518 1519 1520 1521 1522 1524 1525 1526 1527 1528 1528 1528 1529 1529 1530 1530 1530 1530 1530 1530 1530 1530 1530 1529 1529 1529 1529 1528 1529 1529 1529 1529 1529
1503 1508 1513 1507 1506 1506 1511 1517 1511 1510 1510 1511 1512 1513 1515 1516 1518 1519 1520 1521 1523 1524 1525 1526 1527 1528 1528 1529 1529 1530 1530 1531 1531 1531 1531 1531 1531 1531 1530 1530 1529 1529 1529 1529 1529 1529 1529 1529 1529
1510 1516 1515 1511 1506 1507 1511 1515 1510 1510 1510 1511 1512 1513 1514 1516 1517 1519 1520 1521 1522 1524 1525 1526 1527 1528 1529 1529 1530 1530 1531 1531 1531 1531 1531 1531 1531 1531 1531 1530 1529 1529 1529 1529 1529 1529 1529 1529 1529
1515 1516 1514 1513 1508 1509 1512 1513 1510 1509 1510 1511 1511 1512 1514 1515 1517 1518 1519 1520 1522 1523 1524 1526 1527 1528 1529 1529 1530 1531 1531 1531 1532 1532 1532 1532 1531 1531 1531 1530 1529 1529 1528 1528 1529 1529 1529 1529 1530
1507 1511 1514 1511 1507 1510 1512 1512 1510 1509 1510 1510 1511 1512 1513 1514 1516 1518 1519 1520 1521 1523 1524 1525 1526 1528 1528 1529 1529 1530 1531 1531 1532 1532 1532 1532 1532 1531 1531 1530 1529 1529 1528 1528 1529 1529 1529 1529 1529
1507 1511 1513 1511 1507 1510 1513 1513 1510 1509 1509 1509 1509 1510 1512 1514 1515 1516 1518 1519 1520 1522 1523 1524 1526 1527 1528 1528 1529 1530 1531 1531 1532 1532 1532 1532 1532 1532 1531 1530 1529 1529 1528 1528 1528 1528 1528 1528 1529
1507 1510 1511 1512 1510 1511 1513 1516 1512 1509 1508 1508 1509 1509 1510 1512 1513 1515 1516 1517 1519 1520 1522 1523 1525 1526 1527 1528 1529 1530 1530 1531 1531 1531 1532 1532 1532 1532 1531 1531 1530 1529 1528 1528 1528 1528 1528 1528 1529
1509 1503 1505 1508 1516 1522 1518 1529 1516 1511 1509 1507 1507 1508 1508 1510 1511 1513 1514 1515 1517 1519 1521 1522 1524 1525 1526 1527 1528 1528 1529 1529 1530 1530 1531 1531 1531 1531 1531 1530 1530 1529 1528 1528 1527 1528 1528 1528 1528
1503 1501 1504 1508 1514 1522 1521 1527 1521 1512 1510 1507 1505 1505 1506 1508 1509 1510 1512 1514 1516 1518 1519 1521 1522 1524 1525 1526 1527 1527 1528 1529 1529 1530 1530 1530 1530 1530 1530 1530 1529 1529 1528 1528 1528 1528 1528 1528 1528
1499 1504 1509 1515 1520 1530 1524 1528 1524 1514 1508 1504 1503 1503 1503 1505 1507 1508 1510 1512 1514 1516 1518 1519 1521 1522 1524 1525 1525 1526 1527 1527 1528 1528 1529 1529 1529 1529 1529 1529 1528 1528 1528 1527 1527 1527 1527 1527 1527
1502 1514 1527 1529 1535 1532 1521 1524 1520 1505 1501 1500 1500 1500 1501 1503 1504 1506 1508 1510 1512 1514 1516 1518 1519 1521 1522 1523 1524 1525 1525 1526 1527 1527 1527 1527 1527 1528 1528 1528 1528 1528 1527 1527 1527 1526 1526 1526 1526
1503 1510 1527 1533 1536 1531 1522 1523 1511 1501 1498 1497 1498 1498 1499 1501 1502 1504 1506 1507 1509 1512 1514 1515 1517 1518 1520 1521 1522 1523 1524 1524 1525 1526 1526 1526 1526 1527 1527 1527 1527 1527 1527 1526 1526 1525 1525 1525 1525
1503 1510 1511 1523 1527 1531 1526 1517 1506 1499 1498 1497 1497 1498 1498 1499 1500 1502 1504 1505 1507 1509 1511 1513 1515 1516 1518 1519 1520 1521 1522 1523 1523 1524 1524 1525 1525 1525 1525 1525 1525 1525 1525 1525 1525 1524 1524 1524 1523
1498 1505 1516 1523 1530 1533 1526 1520 1514 1502 1500 1498 1497 1497 1497 1498 1499 1501 1502 1504 1505 1508 1510 1511 1513 1514 1515 1516 1518 1518 1519 1520 1521 1522 1522 1523 1523 1523 1523 1523 1524 1524 1524 1523 1523 1523 1522 1522 1522
1502 1507 1514 1522 1524 1531 1531 1521 1501 1498 1496 1496 1496 1496 1496 1497 1498 1499 1501 1502 1504 1506 1508 1509 1511 1512 1513 1514 1515 1516 1517 1518 1519 1519 1520 1520 1520 1521 1521 1521 1521 1521 1521 1521 1521 1521 1520 1520 1520
1497 1501 1509 1519 1523 1526 1527 1520 1496 1495 1494 1494 1494 1494 1495 1496 1497 1498 1500 1501 1502 1504 1505 1507 1508 1509 1510 1512 1513 1514 1515 1516 1516 1517 1517 1518 1518 1518 1519 1519 1519 1519 1519 1519 1518 1518 1518 1518 1517